Regional Weather Roundup
Issued by NWS Boston, MA

Home | Current Version | Previous Version | Text Only | Print | Product List | Glossary On
Versions: 1 2 3 4 5 6 7 8 9 10 11 12 13 14 15 16 17 18 19 20 21 22 23 24 25 26 27 28
000
ASUS41 KBOX 161110
RWRBOX

REGIONAL WEATHER ROUNDUP
NATIONAL WEATHER SERVICE TAUNTON MA
700 AM EDT WED APR 16 2014

NOTE:  "FAIR" INDICATES FEW OR NO CLOUDS BELOW 12,000 FEET WITH NO
SIGNIFICANT WEATHER AND/OR OBSTRUCTIONS TO VISIBILITY.  THE FOLLOWING
OBSERVATION LOCATIONS DO NOT REPORT PRESENT WEATHER...PROVINCETOWN...
SMITHFIELD...BLOCK ISLAND...KEENE...AND OXFORD.

MAZALL-161200-
EASTERN MASSACHUSETTS

CITY           SKY/WX    TMP DP  RH WIND       PRES   REMARKS
BOSTON         CLOUDY    33  20  58 NW22G33   30.05R WCI  21
BEVERLY        CLOUDY    31  24  75 NW15G23   30.04R WCI  20
LAWRENCE       CLOUDY    30  21  69 W17G25    30.08R WCI  18
BEDFORD        CLOUDY    30  24  78 NW21G26   30.06R WCI  17
BLUE HILL        N/A     29  26  89 NW18G29   30.01R WCI  16
NORWOOD        CLOUDY    33  25  72 NW16G23   30.05R WCI  23
MARSHFIELD       N/A    N/A N/A N/A MISG        N/A
PLYMOUTH       LGT SNOW  33  30  88 NW7       30.05R FOG     WCI  27
TAUNTON        CLOUDY    36  28  73 W13G21    30.05R WCI  27
NEW BEDFORD    CLOUDY    34  30  85 NW8G21    30.03R WCI  27
$$

MAZALL-161200-
CAPE COD AND THE ISLANDS

CITY           SKY/WX    TMP DP  RH WIND       PRES   REMARKS
FALMOUTH       LGT SNOW  34  32  93 NW8G15    30.02R WCI  27
HYANNIS        LGT SNOW  34  32  92 N15G26    29.99R FOG     WCI  24
CHATHAM        LGT SNOW  33  32  96 N13G29    29.99R FOG     WCI  24
PROVINCETOWN   CLOUDY    34  28  80 MISG      30.01R
NANTUCKET      LGT RAIN  38  35  89 N20G28    29.96R WCI  28
MARTHAS VNYRD  FLURRIES  35  31  85 NW15G22   30.04R WCI  25
$$

MAZALL-161200-
CENTRAL AND WESTERN MASSACHUSETTS

CITY           SKY/WX    TMP DP  RH WIND       PRES   REMARKS
WORCESTER      CLOUDY    25  16  68 NW18G30   30.05R WCI  11
FITCHBURG      CLOUDY    29  17  61 NW22G30   30.08R WCI  15
ORANGE         MOCLDY    24  17  74 NW15      30.11R WCI  11
SPRINGFIELD    PTCLDY    28  19  68 N13G20    30.13R WCI  17
WESTFIELD      PTCLDY    30  18  60 NW12      30.14R WCI  20
NORTH ADAMS    PTCLDY    24  14  65 VRB7G17   30.16R WCI  16
PITTSFIELD     PTCLDY    22  11  62 NW10      30.11R WCI  11
$$

RIZALL-161200-
RHODE ISLAND

CITY           SKY/WX    TMP DP  RH WIND       PRES   REMARKS
PROVIDENCE     CLOUDY    34  25  69 NW15      30.08R WCI  24
NEWPORT        CLOUDY    34  26  72 NW18G25   30.06R WCI  23
BLOCK ISLAND   CLOUDY    34  23  64 NW14G21   30.08R WCI  24
SMITHFIELD     CLOUDY    30  18  59 NW17G29   30.07R WCI  18
WESTERLY       CLOUDY    32  25  75 NW8G18    30.11R WCI  25
$$

CTZALL-161200-
CONNECTICUT

CITY           SKY/WX    TMP DP  RH WIND       PRES   REMARKS
BRADLEY INTL   PTCLDY    30  15  53 NW17G28   30.13R WCI  18
HARTFORD       MOCLDY    32  17  54 NW22G33   30.16R WCI  19
BRIDGEPORT     CLEAR     32  20  61 NW18G26   30.18R WCI  20
DANBURY        CLEAR     28  20  71 N13G20    30.19R WCI  17
GROTON         MOCLDY    32  23  69 NW18G25   30.12R WCI  20
NEW HAVEN      PTCLDY    32  15  49 NW20G28   30.16R WCI  20
CHESTER        FAIR      30  23  74 NW16G23   30.12R WCI  19
MERIDEN        CLEAR     30  16  56 NW15G29   30.16R WCI  19
WILLIMANTIC    MOCLDY    31  19  61 NW13G26   30.12R WCI  21
OXFORD         CLEAR     27  10  50 N17G37    30.15R WCI  14
$$

MEZ002-015-021-024-NHZ003-005-008-011-012-014-VTZ005-008-161200-
NORTHERN NEW ENGLAND

CITY           SKY/WX    TMP DP  RH WIND       PRES   REMARKS
PORTLAND ME    CLOUDY    30  23  75 NW12      29.99R WCI  20
BANGOR ME      CLOUDY    28  20  71 NW17G25   29.91R WCI  16
CONCORD NH     CLOUDY    25  18  74 NW14G26   30.06R WCI  13
MANCHESTER NH  CLOUDY    28  16  60 NW22G41   30.06R WCI  14
NASHUA NH      CLOUDY    29  19  66 NW17G25   30.08R WCI  17
PORTSMOUTH NH  PTSUNNY   29  21  70 W18G29    30.01R WCI  17
JAFFREY NH     CLOUDY    23  14  68 NW9G22    30.06R WCI  13
KEENE NH       CLOUDY    27  16  63 N10G17    30.12R WCI  17
BURLINGTON VT  MOCLDY    23  15  71 N16       30.19R WCI  10
MT. WASHINGTON FOG       -2  -2 100 NW77G90     N/A  VSB 0   WCI -39
$$

NYZ052-076-161200-
EASTERN NEW YORK

CITY           SKY/WX    TMP DP  RH WIND       PRES   REMARKS
ALBANY         PTCLDY    27  14  58 NW12      30.22R WCI  17
NEW YORK CITY  PTCLDY    32  17  54 NW22G32   30.22R WCI  19
$$

ANZALL-161200-
MARINE OBSERVATIONS

STATION/POSITION TIME  TEMP    WIND        PRES    VSBY  WAVE
                       AIR SEA DIR/SP/G                  HT/PER
                 (UTC) (F)     (DEG/KT/KT) (MB)    (MI)  (FT/S)
BOSTON BUOY      1050   34 40  330/ 25/ 33 1015.9R         4/ 4
BUZZARDS BAY     1000          310/ 26/ 29 1015.6R
NANTUCKET SOUND  1050   38 46  340/ 23/ 29 1014.7R         3/ 4
MASS BAY-STELLWA 1004   34 39  310/ 25/ 31 1013.4R  1 7/8  3/ 4
ISLE OF SHOALS   1100   30     310/ 31/ 36 1014.6R
S OF BLOCK IS    1025      42                N/A          10/10
$$

......................KEY.........................
  SKY/WX - SKY CONDITION/PRESENT WEATHER
  TMP    - TEMPERATURE IN FAHRENHEIT
  DWPT   - DEWPOINT IN FAHRENHEIT
  RH     - RELATIVE HUMIDITY IN PERCENT
  WIND   - DIRECTION AND SPEED IN MPH
  PRES   - MEAN SEA LEVEL PRESSURE IN INCHES OF HG
  WCI    - WIND CHILL INDEX
  VSB    - VISIBILITY IN MILES
  HX     - HEAT INDEX
  TC     - TEMPERATURE IN CELSIUS
  VRB    - VARIABLE WIND DIRECTION
  N/A    - NOT AVAILABLE



USA.gov is the U.S. government's official web portal to all federal, state and local government web resources and services.